| time (UTC) | temp C | wind direction | speed KPH | gust KPH | rain 1hr cm | rain 24hr cm | rain mn cm | humidity % | barometer mb |
| 20260901135407 | 12 | 36 | 4.8 | 9.7 | 0.00 | 0.91 | 0.00 | 53 | 1016.9 |
| 20260901134407 | 12 | 21 | 6.4 | 12.9 | 0.00 | 0.99 | 0.00 | 54 | 1016.8 |
| 20260901133407 | 12 | 36 | 4.8 | 12.9 | 0.00 | 1.02 | 0.00 | 55 | 1016.7 |
| 20260901132407 | 12 | 352 | 3.2 | 9.7 | 0.00 | 1.04 | 0.00 | 54 | 1016.7 |
| 20260901131407 | 11 | 328 | 4.8 | 12.9 | 0.00 | 1.09 | 0.00 | 54 | 1016.6 |
| 20260901130407 | 11 | 334 | 4.8 | 14.5 | 0.00 | 1.17 | 0.00 | 54 | 1016.5 |
| 20260901125407 | 12 | 313 | 9.7 | 14.5 | 0.00 | 1.19 | 0.00 | 53 | 1016.5 |
| 20260901124407 | 12 | 322 | 6.4 | 12.9 | 0.00 | 1.19 | 0.00 | 53 | 1016.4 |
| 20260901123407 | 12 | 353 | 3.2 | 8.0 | 0.00 | 1.19 | 0.00 | 54 | 1016.3 |
| 20260901122407 | 12 | 21 | 4.8 | 11.3 | 0.00 | 1.19 | 0.00 | 54 | 1016.3 |
| 20260901121407 | 12 | 24 | 4.8 | 11.3 | 0.00 | 1.19 | 0.00 | 50 | 1016.2 |
| 20260901120407 | 12 | 45 | 3.2 | 11.3 | 0.00 | 1.19 | 0.00 | 49 | 1016.2 |
| 20260901115407 | 12 | 19 | 4.8 | 11.3 | 0.00 | 1.19 | 0.00 | 51 | 1016.2 |
| 20260901114407 | 12 | 37 | 4.8 | 9.7 | 0.00 | 1.19 | 0.00 | 50 | 1016.1 |
| 20260901113408 | 12 | 30 | 3.2 | 8.0 | 0.00 | 1.22 | 0.00 | 52 | 1016.2 |
| 20260901112407 | 12 | 8 | 3.2 | 8.0 | 0.00 | 1.24 | 0.00 | 52 | 1016.2 |
| 20260901111408 | 12 | 347 | 3.2 | 11.3 | 0.00 | 1.32 | 0.00 | 51 | 1016.2 |
| 20260901110407 | 12 | 329 | 4.8 | 12.9 | 0.00 | 1.37 | 0.00 | 51 | 1016.2 |
| 20260901105407 | 12 | 341 | 6.4 | 16.1 | 0.00 | 1.37 | 0.00 | 50 | 1016.2 |
| 20260901104408 | 12 | 324 | 8.0 | 14.5 | 0.00 | 1.37 | 0.00 | 49 | 1016.2 |
| 20260901103409 | 12 | 317 | 9.7 | 14.5 | 0.00 | 1.37 | 0.00 | 47 | 1016.2 |
| 20260901102407 | 12 | 320 | 8.0 | 16.1 | 0.00 | 1.37 | 0.00 | 45 | 1016.3 |
| 20260901101407 | 12 | 316 | 8.0 | 12.9 | 0.00 | 1.37 | 0.00 | 43 | 1016.2 |
| 20260901100407 | 12 | 326 | 6.4 | 14.5 | 0.00 | 1.37 | 0.00 | 42 | 1016.2 |
| 20260901095407 | 13 | 327 | 3.2 | 11.3 | 0.00 | 1.37 | 0.00 | 41 | 1016.3 |
| 20260901094407 | 13 | 317 | 1.6 | 8.0 | 0.00 | 1.37 | 0.00 | 40 | 1016.3 |
| 20260901093407 | 13 | 344 | 3.2 | 11.3 | 0.00 | 1.37 | 0.00 | 40 | 1016.3 |
| 20260901092408 | 13 | 329 | 4.8 | 12.9 | 0.00 | 1.37 | 0.00 | 39 | 1016.3 |
| 20260901091407 | 13 | 327 | 6.4 | 14.5 | 0.00 | 1.37 | 0.00 | 40 | 1016.4 |
| 20260901090407 | 13 | 325 | 6.4 | 14.5 | 0.00 | 1.37 | 0.00 | 41 | 1016.3 |
| 20260901085407 | 13 | 326 | 6.4 | 12.9 | 0.00 | 1.37 | 0.00 | 40 | 1016.4 |
| 20260901084407 | 12 | 347 | 1.6 | 8.0 | 0.00 | 1.37 | 0.00 | 41 | 1016.4 |
| 20260901083407 | 12 | 323 | 4.8 | 9.7 | 0.00 | 1.37 | 0.00 | 43 | 1016.5 |
| 20260901082407 | 12 | 316 | 6.4 | 11.3 | 0.00 | 1.37 | 0.00 | 43 | 1016.6 |
| 20260901081407 | 13 | 319 | 4.8 | 12.9 | 0.00 | 1.37 | 0.00 | 42 | 1016.5 |
| 20260901080407 | 13 | 324 | 6.4 | 12.9 | 0.00 | 1.37 | 0.00 | 39 | 1016.5 |
| 20260901075407 | 13 | 324 | 4.8 | 11.3 | 0.00 | 1.37 | 0.00 | 39 | 1016.6 |
| 20260901074407 | 13 | 317 | 6.4 | 12.9 | 0.00 | 1.37 | 0.00 | 40 | 1016.6 |
| 20260901073533 | 13 | 314 | 8.0 | 12.9 | 0.00 | 1.37 | 0.00 | 42 | 1016.8 |
| 20260901073407 | 13 | 314 | 8.0 | 12.9 | 0.00 | 1.37 | 0.00 | 42 | 1016.8 |
| 20260901071408 | 13 | 314 | 8.0 | 12.9 | 0.00 | 1.37 | 0.00 | 39 | 1016.8 |
| 20260901070408 | 13 | 308 | 9.7 | 12.9 | 0.00 | 1.37 | 0.00 | 41 | 1016.8 |
| 20260901065408 | 13 | 308 | 8.0 | 12.9 | 0.00 | 1.37 | 0.00 | 42 | 1016.8 |
| 20260901064408 | 13 | 304 | 9.7 | 16.1 | 0.00 | 1.37 | 0.00 | 41 | 1016.7 |
| 20260901063408 | 13 | 309 | 9.7 | 12.9 | 0.00 | 1.37 | 0.00 | 40 | 1016.6 |
| 20260901062408 | 13 | 299 | 6.4 | 11.3 | 0.00 | 1.37 | 0.00 | 38 | 1016.7 |
| 20260901061408 | 13 | 314 | 4.8 | 8.0 | 0.00 | 1.37 | 0.00 | 39 | 1016.6 |
| 20260901060408 | 13 | 312 | 6.4 | 11.3 | 0.00 | 1.37 | 0.00 | 38 | 1016.6 |
| 20260901055408 | 13 | 297 | 3.2 | 9.7 | 0.00 | 1.37 | 0.00 | 38 | 1016.6 |
| 20260901054409 | 13 | 268 | 6.4 | 9.7 | 0.00 | 1.37 | 0.00 | 39 | 1016.5 |
| 20260901053408 | 13 | 268 | 3.2 | 6.4 | 0.00 | 1.37 | 0.00 | 40 | 1016.6 |
| 20260901052408 | 13 | 262 | 4.8 | 6.4 | 0.00 | 1.37 | 0.00 | 42 | 1016.7 |
| 20260901051408 | 12 | 238 | 4.8 | 6.4 | 0.00 | 1.37 | 0.00 | 46 | 1016.7 |
| 20260901050408 | 12 | 201 | 1.6 | 6.4 | 0.00 | 1.37 | 0.00 | 47 | 1016.6 |
| 20260901045408 | 12 | 201 | 3.2 | 6.4 | 0.00 | 1.37 | 0.00 | 48 | 1016.7 |
| 20260901044409 | 12 | 0 | 0.0 | 6.4 | 0.00 | 1.37 | 0.00 | 46 | 1016.6 |
| 20260901043408 | 12 | 0 | 0.0 | 4.8 | 0.00 | 1.37 | 0.00 | 48 | 1016.6 |
| 20260901042408 | 12 | 201 | 3.2 | 8.0 | 0.00 | 1.37 | 0.00 | 48 | 1016.5 |
| 20260901041408 | 12 | 191 | 6.4 | 9.7 | 0.00 | 1.37 | 0.00 | 48 | 1016.5 |
| 20260901040408 | 12 | 189 | 6.4 | 11.3 | 0.00 | 1.37 | 0.00 | 48 | 1016.4 |
| 20260901035408 | 12 | 211 | 6.4 | 9.7 | 0.00 | 1.37 | 0.00 | 49 | 1016.4 |
| 20260901034408 | 12 | 211 | 6.4 | 9.7 | 0.00 | 1.37 | 0.00 | 49 | 1016.5 |
| 20260901033408 | 12 | 211 | 4.8 | 8.0 | 0.00 | 1.37 | 0.00 | 49 | 1016.5 |
| 20260901032408 | 12 | 211 | 4.8 | 8.0 | 0.00 | 1.37 | 0.00 | 49 | 1016.3 |
| 20260901031408 | 12 | 212 | 6.4 | 9.7 | 0.00 | 1.37 | 0.00 | 48 | 1016.2 |
| 20260901030408 | 12 | 258 | 4.8 | 9.7 | 0.00 | 1.37 | 0.00 | 49 | 1016.1 |
| 20260901025408 | 12 | 0 | 0.0 | 4.8 | 0.00 | 1.37 | 0.00 | 48 | 1016.0 |
| 20260901024408 | 12 | 258 | 1.6 | 4.8 | 0.00 | 1.37 | 0.00 | 48 | 1015.8 |
| 20260901023408 | 12 | 0 | 0.0 | 0.0 | 0.00 | 1.37 | 0.00 | 46 | 1015.6 |
| 20260901022408 | 12 | 0 | 0.0 | 3.2 | 0.00 | 1.37 | 0.00 | 46 | 1015.5 |
| 20260901021408 | 12 | 0 | 0.0 | 0.0 | 0.00 | 1.37 | 0.00 | 46 | 1015.5 |
| 20260901020408 | 12 | 258 | 1.6 | 4.8 | 0.00 | 1.37 | 0.00 | 46 | 1015.4 |
| 20260901015408 | 12 | 258 | 3.2 | 6.4 | 0.00 | 1.37 | 0.00 | 48 | 1015.4 |
| 20260901014408 | 12 | 258 | 1.6 | 9.7 | 0.00 | 1.37 | 0.00 | 48 | 1015.2 |
| 20260901013408 | 13 | 258 | 4.8 | 11.3 | 0.00 | 1.37 | 0.00 | 46 | 1015.2 |
| 20260901012408 | 13 | 258 | 8.0 | 11.3 | 0.00 | 1.37 | 0.00 | 45 | 1015.3 |
| 20260901011408 | 13 | 267 | 6.4 | 11.3 | 0.00 | 1.37 | 0.00 | 46 | 1015.2 |
| 20260901010408 | 13 | 247 | 4.8 | 11.3 | 0.00 | 1.37 | 0.00 | 49 | 1015.3 |
| 20260901005408 | 13 | 245 | 4.8 | 12.9 | 0.00 | 1.37 | 0.00 | 50 | 1015.3 |
| 20260901004408 | 13 | 260 | 9.7 | 16.1 | 0.00 | 1.37 | 0.00 | 49 | 1015.3 |
| 20260901003408 | 13 | 253 | 6.4 | 14.5 | 0.00 | 1.37 | 0.00 | 46 | 1015.3 |
| 20260901002408 | 13 | 266 | 6.4 | 14.5 | 0.00 | 1.37 | 0.00 | 48 | 1015.3 |
| 20260901001409 | 14 | 262 | 8.0 | 16.1 | 0.00 | 1.37 | 0.00 | 53 | 1015.2 |
| 20260901000408 | 15 | 245 | 8.0 | 14.5 | 0.00 | 1.37 | 0.00 | 48 | 1015.1 |
| 20260831235408 | 15 | 210 | 6.4 | 12.9 | 0.00 | 1.37 | 0.00 | 45 | 1015.0 |
| 20260831234408 | 15 | 199 | 4.8 | 12.9 | 0.00 | 1.37 | 0.00 | 47 | 1015.1 |
| 20260831233408 | 15 | 183 | 4.8 | 12.9 | 0.00 | 1.37 | 0.00 | 47 | 1015.2 |
| 20260831232408 | 15 | 181 | 6.4 | 14.5 | 0.00 | 1.37 | 0.00 | 45 | 1015.1 |
| 20260831231410 | 15 | 175 | 6.4 | 16.1 | 0.00 | 1.37 | 0.00 | 47 | 1015.3 |
| 20260831230408 | 14 | 196 | 6.4 | 11.3 | 0.00 | 1.37 | 1.37 | 55 | 1015.4 |
| 20260831225408 | 13 | 228 | 8.0 | 16.1 | 0.00 | 1.37 | 1.37 | 54 | 1015.5 |
| 20260831224408 | 13 | 219 | 6.4 | 16.1 | 0.00 | 1.37 | 1.37 | 54 | 1015.7 |
| 20260831223408 | 13 | 210 | 11.3 | 20.9 | 0.00 | 1.37 | 1.37 | 55 | 1015.7 |
| 20260831222408 | 12 | 222 | 11.3 | 17.7 | 0.00 | 1.37 | 1.37 | 59 | 1015.7 |
| 20260831221408 | 12 | 221 | 9.7 | 22.5 | 0.00 | 1.37 | 1.37 | 61 | 1016.0 |
| 20260831220408 | 12 | 222 | 9.7 | 16.1 | 0.00 | 1.37 | 1.37 | 62 | 1016.1 |
| 20260831215408 | 11 | 187 | 9.7 | 19.3 | 0.00 | 1.37 | 1.37 | 58 | 1016.3 |
| 20260831214408 | 12 | 216 | 12.9 | 19.3 | 0.03 | 1.37 | 1.37 | 59 | 1016.4 |
| 20260831213408 | 12 | 220 | 11.3 | 25.7 | 0.05 | 1.37 | 1.37 | 57 | 1016.5 |
| 20260831212408 | 11 | 219 | 11.3 | 25.7 | 0.05 | 1.37 | 1.37 | 57 | 1016.6 |
| 20260831211410 | 11 | 209 | 11.3 | 19.3 | 0.08 | 1.37 | 1.37 | 58 | 1016.8 |
| 20260831210409 | 11 | 221 | 11.3 | 20.9 | 0.10 | 1.37 | 1.37 | 56 | 1017.0 |
| 20260831205408 | 11 | 215 | 1.6 | 17.7 | 0.13 | 1.37 | 1.37 | 59 | 1017.2 |
| 20260831204409 | 11 | 302 | 1.6 | 6.4 | 0.13 | 1.35 | 1.35 | 55 | 1017.3 |
| 20260831203410 | 11 | 294 | 8.0 | 25.7 | 0.10 | 1.32 | 1.32 | 57 | 1017.6 |
| 20260831202408 | 10 | 303 | 19.3 | 27.4 | 0.10 | 1.32 | 1.32 | 62 | 1017.7 |
| 20260831201414 | 10 | 302 | 17.7 | 27.4 | 0.10 | 1.30 | 1.30 | 65 | 1017.8 |
| 20260831200408 | 10 | 298 | 16.1 | 38.6 | 0.10 | 1.27 | 1.27 | 66 | 1017.8 |
| 20260831195409 | 10 | 297 | 22.5 | 40.2 | 0.13 | 1.24 | 1.24 | 66 | 1017.7 |
| 20260831194410 | 10 | 285 | 29.0 | 40.2 | 0.13 | 1.22 | 1.22 | 64 | 1017.8 |
| 20260831193410 | 10 | 287 | 27.4 | 38.6 | 0.13 | 1.22 | 1.22 | 69 | 1017.9 |
| 20260831192409 | 10 | 271 | 25.7 | 33.8 | 0.13 | 1.22 | 1.22 | 70 | 1017.9 |
| 20260831191408 | 9 | 276 | 22.5 | 29.0 | 0.10 | 1.19 | 1.19 | 73 | 1017.8 |
| 20260831190416 | 10 | 266 | 19.3 | 27.4 | 0.08 | 1.17 | 1.17 | 72 | 1017.9 |
| 20260831185411 | 10 | 250 | 19.3 | 29.0 | 0.03 | 1.12 | 1.12 | 69 | 1018.0 |
| 20260831184408 | 10 | 266 | 16.1 | 29.0 | 0.00 | 1.09 | 1.09 | 69 | 1018.0 |
| 20260831183412 | 11 | 263 | 16.1 | 24.1 | 0.00 | 1.09 | 1.09 | 66 | 1017.9 |
| 20260831182409 | 11 | 262 | 20.9 | 25.7 | 0.00 | 1.09 | 1.09 | 65 | 1018.0 |
| 20260831181410 | 11 | 276 | 16.1 | 24.1 | 0.03 | 1.09 | 1.09 | 66 | 1018.1 |
| 20260831180412 | 10 | 318 | 8.0 | 24.1 | 0.03 | 1.09 | 1.09 | 68 | 1018.0 |
| 20260831175409 | 10 | 311 | 14.5 | 22.5 | 0.03 | 1.09 | 1.09 | 68 | 1018.0 |
| 20260831174411 | 10 | 316 | 9.7 | 16.1 | 0.03 | 1.09 | 1.09 | 72 | 1018.2 |
| 20260831173408 | 10 | 331 | 3.2 | 9.7 | 0.03 | 1.09 | 1.09 | 75 | 1018.2 |
| 20260831172408 | 10 | 321 | 6.4 | 14.5 | 0.03 | 1.09 | 1.09 | 74 | 1018.1 |
| 20260831171411 | 10 | 334 | 4.8 | 16.1 | 0.00 | 1.07 | 1.07 | 74 | 1018.0 |
| 20260831170409 | 11 | 300 | 12.9 | 19.3 | 0.00 | 1.07 | 1.07 | 67 | 1017.9 |
| 20260831165408 | 12 | 324 | 6.4 | 14.5 | 0.00 | 1.07 | 1.07 | 57 | 1017.8 |
| 20260831164409 | 12 | 326 | 4.8 | 22.5 | 0.00 | 1.07 | 1.07 | 57 | 1017.6 |
| 20260831163409 | 12 | 309 | 8.0 | 14.5 | 0.00 | 1.07 | 1.07 | 56 | 1017.3 |
| 20260831162409 | 12 | 291 | 12.9 | 22.5 | 0.03 | 1.07 | 1.07 | 53 | 1017.2 |
| 20260831161408 | 11 | 289 | 8.0 | 16.1 | 0.08 | 1.07 | 1.07 | 63 | 1016.9 |
| 20260831160409 | 10 | 12 | 3.2 | 11.3 | 0.13 | 1.07 | 1.07 | 65 | 1016.9 |
| 20260831155412 | 10 | 13 | 6.4 | 16.1 | 0.18 | 1.07 | 1.07 | 63 | 1016.8 |
| 20260831154408 | 10 | 333 | 8.0 | 16.1 | 0.20 | 1.07 | 1.07 | 62 | 1016.8 |
| 20260831153407 | 10 | 47 | 3.2 | 9.7 | 0.25 | 1.07 | 1.07 | 66 | 1017.0 |
| 20260831152408 | 10 | 280 | 1.6 | 11.3 | 0.30 | 1.04 | 1.04 | 61 | 1017.3 |
| 20260831151408 | 10 | 258 | 3.2 | 14.5 | 0.36 | 0.99 | 0.99 | 64 | 1017.9 |
| 20260831150408 | 10 | 303 | 6.4 | 11.3 | 0.43 | 0.94 | 0.94 | 66 | 1017.7 |
| 20260831145412 | 10 | 256 | 3.2 | 12.9 | 0.46 | 0.89 | 0.89 | 75 | 1017.9 |
| 20260831144407 | 9 | 287 | 9.7 | 12.9 | 0.48 | 0.86 | 0.86 | 77 | 1017.7 |
| 20260831143408 | 10 | 239 | 8.0 | 14.5 | 0.48 | 0.81 | 0.81 | 77 | 1017.9 |
| 20260831142408 | 10 | 224 | 9.7 | 16.1 | 0.43 | 0.74 | 0.74 | 77 | 1017.7 |
| 20260831141409 | 10 | 220 | 11.3 | 19.3 | 0.38 | 0.64 | 0.64 | 77 | 1017.8 |
| 20260831140408 | 10 | 219 | 12.9 | 20.9 | 0.30 | 0.51 | 0.51 | 77 | 1017.7 |